ラ・サグラ彗星

C/2013 H1 ( La Sagra )

English version
Home page
Updated on September 14, 2013

---------------------------------------------------------------------

・ プロフィール

発見日 2013年4月19日
発見光度 17.7等
発見者 J. Nomen (La Sagra Sky Survey)

・ 写真集

・ 軌道要素

Epoch 2013 May 28.0 TT = JDT 2456440.5
T 2013 May 19.66459 TT                                  MPC
q   2.6469508            (2000.0)            P               Q
z  +0.0055088      Peri.  136.57982     -0.67326442     +0.58389937
 +/-0.0000066      Node    84.97016     -0.73911173     -0.54864577
e   0.9854185      Incl.   27.08936     +0.02070927     -0.59837225
From 252 observations 2013 Apr. 19-Aug. 10, mean residual 0".5.

・ 光度変化

        m1 = 10.0 + 5 logΔ + 15.0 log r

---------------------------------------------------------------------

軌道要素はM.P.E.C. 2013-R59に掲載されたものです。
光度グラフはComet for Windowsで作成したものです。

---------------------------------------------------------------------

Copyright(C) Seiichi Yoshida (comet@aerith.net). All rights reserved.